Location: Newark
(44.6028°N, 124.0883°W)
Time: 07:42:57
(UTC+00:00)

Vanguard 1 - Pass Details

Date: 23 October 2019
Orbit: 652 x 3831 km, 34.2° (Epoch: 19 November)

Event Time Altitude Azimuth Distance (km) Brightness Sun altitude
Rises 06:10:09 0° 268° (W) 4,740 13.9 -49.1°
Reaches altitude 10° 06:12:52 10° 262° (W) 4,081 13.4 -49.5°
Enters shadow 06:17:24 30° 245° (WSW) 3,283 12.6 -50.0°
Maximum altitude 06:23:53 48° 193° (SSW) 3,160 - -50.8°
Drops below altitude 10° 06:42:30 10° 128° (SE) 6,633 - -52.7°
Sets 06:48:29 0° 123° (ESE) 7,872 - -53.3°
